CHINASAT 6A (ZX 6A)

Last updated on Jan. 23, 2021, 7:14 a.m. UTC

1 37150U 10042A   21022.16184064 -.00000342  00000-0  00000-0 0  9990
2 37150   0.0240 158.3933 0003163  10.0999 136.5304  1.00272313 38122
UTC
Height (km)
Latitude
Longitude
Inclination
Orbital Period
UTC large
Height (km)
Speed (km/s)
/
Latitude / Longitude
Inclination (degrees)
Orbital Period (minutes)
Azimuth
Elevation
Range (km)
Doppler Factor
iOS Compass Heading
iOS Angle

Next 30 passes for location: Hong Kong

Rise time Rise Azimuth (degrees) Set time Set Azimuth (degrees) Duration Max altitude (degrees)

No matching passes for this satellites